Location: *
(17.2381°S, 99.2891°W)
Time: 19:31:02
(UTC+00:00)

Daily predictions for brighter satellites

Satellite Brightness Start Highest point End
(mag) Time Altitude Azimuth Time Altitude Azimuth Time Altitude Azimuth
Hubble Space Telescope 1.1 12:02:12 16° W 12:05:12 47° SSW 12:09:06 10° SE
SeaSat 1 2.4 12:00:48 10° NNE 12:05:41 77° WNW 12:10:37 10° SSW
SL-24 DEB 4.5 12:03:07 10° NNE 12:07:44 75° E 12:12:22 10° S
Cosmos 1943 Rocket 2.2 12:03:16 10° NNW 12:08:54 84° WSW 12:14:32 10° SSE
Okean 3 3.4 12:06:24 10° S 12:10:39 80° W 12:14:51 10° N
CZ-2C R/B 4.5 12:10:20 10° NE 12:13:38 34° ESE 12:16:57 10° S
Cosmos 1371 Rocket 4.1 12:13:37 10° NNW 12:18:52 63° WSW 12:24:12 10° S
Cosmos 1140 Rocket 4.2 12:16:01 10° S 12:21:06 59° ESE 12:26:10 10° NNE
Cosmos 1356 Rocket 3.5 12:17:46 10° S 12:21:57 80° E 12:26:00 10° N
Cosmos 2315 Rocket 4.0 12:18:06 10° NNW 12:24:11 61° W 12:30:25 10° S
PSLV R/B 4.0 12:20:24 10° NNW 12:24:11 37° W 12:28:02 10° SSW
SJ-7 4.3 12:22:01 10° N 12:25:54 65° W 12:29:47 10° SSW
SMAP 3.1 12:21:22 10° NNE 12:26:01 89° W 12:30:43 10° SSW
